,,PA_Meas_PMT16A,,PR_Meas_QMR101_102,,RH_Meas_QMH101,,SR_Meas_QMS101,,TA_Meas_QMH101,,GenWind,,GenWind,
time,status,PA,status,PR,status,RH,status,SR,status,TA,status,DirAvg,status,SpdAvg,
2012-08-21, 00:00:04,VALID,918.096,VALID,0,VALID,97.3358,VALID,0,VALID,19.9984,VALID,4,VALID,0,
2012-08-21, 00:01:04,VALID,918.103,VALID,0,VALID,97.3358,VALID,0,VALID,20.0389,VALID,4,VALID,0,
2012-08-21, 00:02:04,VALID,918.101,VALID,0,VALID,97.3586,VALID,0,VALID,20.0179,VALID,4,VALID,0,
2012-08-21, 00:03:04,VALID,918.111,VALID,0,VALID,97.3358,VALID,0,VALID,20.0179,VALID,4,VALID,0,
2012-08-21, 00:04:04,VALID,918.094,VALID,0,VALID,97.351,VALID,0,VALID,19.9984,VALID,4,VALID,0,
2012-08-21, 00:05:04,VALID,918.084,VALID,0,VALID,97.3434,VALID,0,VALID,19.9984,VALID,4,VALID,0,
2012-08-21, 00:06:04,VALID,918.059,VALID,0,VALID,97.351,VALID,0,VALID,20.0194,VALID,4,VALID,0,
2012-08-21, 00:07:04,VALID,918.038,VALID,0,VALID,97.3434,VALID,0,VALID,19.9788,VALID,4,VALID,0,
2012-08-21, 00:08:04,VALID,918.048,VALID,0,VALID,97.3663,VALID,0,VALID,19.9788,VALID,4,VALID,0,
2012-08-21, 00:09:04,VALID,918.08,VALID,0,VALID,97.351,VALID,0,VALID,19.9788,VALID,4,VALID,0,
2012-08-21, 00:10:04,VALID,918.046,VALID,0,VALID,97.3434,VALID,0,VALID,19.9984,VALID,4,VALID,0,
2012-08-21, 00:11:04,VALID,918.036,VALID,0,VALID,97.3434,VALID,0,VALID,19.9984,VALID,4,VALID,0,
2012-08-21, 00:12:04,VALID,918.029,VALID,0,VALID,97.3663,VALID,0,VALID,19.9999,VALID,25,VALID,0,
2012-08-21, 00:13:04,VALID,918.011,VALID,0,VALID,97.3586,VALID,0,VALID,19.9999,VALID,30,VALID,0,
2012-08-21, 00:14:04,VALID,917.973,VALID,0,VALID,97.3663,VALID,0,VALID,19.9593,VALID,33,VALID,0,
2012-08-21, 00:15:04,VALID,917.995,VALID,0,VALID,97.3434,VALID,0,VALID,19.9398,VALID,26,VALID,0,
2012-08-21, 00:16:04,VALID,917.971,VALID,0,VALID,97.351,VALID,0,VALID,19.9218,VALID,41,VALID,0,
2012-08-21, 00:17:04,VALID,917.981,VALID,0,VALID,97.351,VALID,0,VALID,19.9023,VALID,29,VALID,0,
2012-08-21, 00:18:04,VALID,918.001,VALID,0,VALID,97.3586,VALID,0,VALID,19.8408,VALID,16,VALID,0,
2012-08-21, 00:19:04,VALID,917.948,VALID,0,VALID,97.3434,VALID,0,VALID,19.8033,VALID,21,VALID,0.0519531,
2012-08-21, 00:20:04,VALID,917.946,VALID,0,VALID,97.3358,VALID,0,VALID,19.7838,VALID,20,VALID,0,
2012-08-21, 00:21:04,VALID,917.908,VALID,0,VALID,97.3739,VALID,0,VALID,19.7643,VALID,33,VALID,0.00234375,
2012-08-21, 00:22:04,VALID,917.868,VALID,0,VALID,97.351,VALID,0,VALID,19.7853,VALID,29,VALID,0,
2012-08-21, 00:23:04,VALID,917.801,VALID,0,VALID,97.351,VALID,0,VALID,19.7448,VALID,35,VALID,0,
2012-08-21, 00:24:04,VALID,917.794,VALID,0,VALID,97.351,VALID,0,VALID,19.7448,VALID,29,VALID,0,
2012-08-21, 00:25:04,VALID,917.793,VALID,0,VALID,97.3739,VALID,0,VALID,19.7448,VALID,30,VALID,0,
2012-08-21, 00:26:04,VALID,917.775,VALID,0,VALID,97.3815,VALID,0,VALID,19.7448,VALID,36,VALID,0,
2012-08-21, 00:27:04,VALID,917.767,VALID,0,VALID,97.3663,VALID,0,VALID,19.7253,VALID,24,VALID,0,
2012-08-21, 00:28:04,VALID,917.744,VALID,0,VALID,97.3815,VALID,0,VALID,19.7058,VALID,24,VALID,0,
2012-08-21, 00:29:04,VALID,917.764,VALID,0,VALID,97.3815,VALID,0,VALID,19.7253,VALID,40,VALID,0,
2012-08-21, 00:30:04,VALID,917.794,VALID,0,VALID,97.3815,VALID,0,VALID,19.6863,VALID,31,VALID,0,
2012-08-21, 00:31:04,VALID,917.832,VALID,0,VALID,97.3891,VALID,0,VALID,19.6473,VALID,53,VALID,0,
2012-08-21, 00:32:04,VALID,917.859,VALID,0,VALID,97.3815,VALID,0,VALID,19.6668,VALID,41,VALID,0,
2012-08-21, 00:33:04,VALID,917.843,VALID,0,VALID,97.4044,VALID,0,VALID,19.6278,VALID,41,VALID,0,
2012-08-21, 00:34:04,VALID,917.872,VALID,0,VALID,97.412,VALID,0,VALID,19.7253,VALID,33,VALID,0,
2012-08-21, 00:35:04,VALID,917.856,VALID,0,VALID,97.412,VALID,0,VALID,19.6863,VALID,25,VALID,0,
2012-08-21, 00:36:04,VALID,917.862,VALID,0,VALID,97.4273,VALID,0,VALID,19.6263,VALID,14,VALID,0,
2012-08-21, 00:37:05,VALID,917.83,VALID,0,VALID,97.412,VALID,0,VALID,19.6278,VALID,14,VALID,0,
2012-08-21, 00:38:05,VALID,917.846,VALID,0,VALID,97.4273,VALID,0,VALID,19.6473,VALID,14,VALID,0,
2012-08-21, 00:39:05,VALID,917.859,VALID,0,VALID,97.4425,VALID,0,VALID,19.7058,VALID,14,VALID,0,
2012-08-21, 00:40:05,VALID,917.786,VALID,0,VALID,97.4273,VALID,0,VALID,19.6473,VALID,14,VALID,0,
2012-08-21, 00:41:05,VALID,917.752,VALID,0.2,VALID,97.4425,VALID,0,VALID,19.6083,VALID,66,VALID,0,
2012-08-21, 00:42:05,VALID,917.719,VALID,0,VALID,97.4349,VALID,0,VALID,19.6863,VALID,66,VALID,0,
2012-08-21, 00:43:05,VALID,917.701,VALID,0,VALID,97.4349,VALID,0,VALID,19.6683,VALID,65,VALID,0,
2012-08-21, 00:44:05,VALID,917.674,VALID,0,VALID,97.4349,VALID,0,VALID,19.6278,VALID,65,VALID,0,
2012-08-21, 00:45:05,VALID,917.676,VALID,0,VALID,97.4577,VALID,0,VALID,19.6473,VALID,66,VALID,0,
2012-08-21, 00:46:05,VALID,917.687,VALID,0,VALID,97.4501,VALID,0,VALID,19.6878,VALID,66,VALID,0,
2012-08-21, 00:47:05,VALID,917.683,VALID,0,VALID,97.4501,VALID,0,VALID,19.6668,VALID,66,VALID,0,
2012-08-21, 00:48:05,VALID,917.699,VALID,0,VALID,97.4654,VALID,0,VALID,19.6668,VALID,66,VALID,0,
2012-08-21, 00:49:05,VALID,917.707,VALID,0,VALID,97.4577,VALID,0,VALID,19.6473,VALID,66,VALID,0,
2012-08-21, 00:50:05,VALID,917.736,VALID,0.2,VALID,97.4501,VALID,0,VALID,19.6473,VALID,66,VALID,0,
2012-08-21, 00:51:05,VALID,917.753,VALID,0,VALID,97.4577,VALID,0,VALID,19.6278,VALID,66,VALID,0,
2012-08-21, 00:52:05,VALID,917.753,VALID,0,VALID,97.4349,VALID,0,VALID,19.6668,VALID,66,VALID,0,
2012-08-21, 00:53:05,VALID,917.746,VALID,0,VALID,97.4654,VALID,0,VALID,19.6278,VALID,66,VALID,0,
2012-08-21, 00:54:05,VALID,917.746,VALID,0,VALID,97.4349,VALID,0,VALID,19.6293,VALID,66,VALID,0,
2012-08-21, 00:55:05,VALID,917.721,VALID,0,VALID,97.4654,VALID,0,VALID,19.6473,VALID,52,VALID,0,
2012-08-21, 00:56:05,VALID,917.715,VALID,0,VALID,97.4577,VALID,0,VALID,19.6263,VALID,49,VALID,0,
2012-08-21, 00:57:05,VALID,917.656,VALID,0,VALID,97.4654,VALID,0,VALID,19.6668,VALID,36,VALID,0,
2012-08-21, 00:58:05,VALID,917.63,VALID,0,VALID,97.4806,VALID,0.107441,VALID,19.6263,VALID,14,VALID,0,
2012-08-21, 00:59:05,VALID,917.582,VALID,0,VALID,97.473,VALID,0,VALID,19.5678,VALID,6,VALID,0,
2012-08-21, 01:00:05,VALID,917.554,VALID,0,VALID,97.473,VALID,0,VALID,19.5093,VALID,358,VALID,0,
2012-08-21, 01:01:05,VALID,917.529,VALID,0,VALID,97.4654,VALID,0,VALID,19.5093,VALID,354,VALID,0,
2012-08-21, 01:02:05,VALID,917.506,VALID,0,VALID,97.4654,VALID,0.107441,VALID,19.4898,VALID,355,VALID,0,
2012-08-21, 01:03:05,VALID,917.504,VALID,0,VALID,97.4654,VALID,0,VALID,19.5512,VALID,355,VALID,0,
2012-08-21, 01:04:05,VALID,917.52,VALID,0,VALID,97.473,VALID,0,VALID,19.5108,VALID,355,VALID,0,
2012-08-21, 01:05:05,VALID,917.527,VALID,0,VALID,97.473,VALID,0,VALID,19.4327,VALID,355,VALID,0,
2012-08-21, 01:06:05,VALID,917.544,VALID,0,VALID,97.4654,VALID,0,VALID,19.4718,VALID,355,VALID,0,
2012-08-21, 01:07:05,VALID,917.562,VALID,0,VALID,97.4959,VALID,0,VALID,19.5108,VALID,355,VALID,0,
2012-08-21, 01:08:05,VALID,917.543,VALID,0,VALID,97.473,VALID,0,VALID,19.5303,VALID,355,VALID,0,
2012-08-21, 01:09:05,VALID,917.529,VALID,0,VALID,97.4959,VALID,0,VALID,19.5108,VALID,26,VALID,0,
2012-08-21, 01:10:05,VALID,917.56,VALID,0,VALID,97.4959,VALID,0,VALID,19.5303,VALID,356,VALID,0,
2012-08-21, 01:11:05,VALID,917.552,VALID,0,VALID,97.4806,VALID,0,VALID,19.5498,VALID,357,VALID,0,
2012-08-21, 01:12:05,VALID,917.542,VALID,0,VALID,97.4882,VALID,0,VALID,19.5512,VALID,8,VALID,0,
2012-08-21, 01:13:05,VALID,917.511,VALID,0,VALID,97.4959,VALID,0,VALID,19.4913,VALID,357,VALID,0,
2012-08-21, 01:14:05,VALID,917.507,VALID,0,VALID,97.4959,VALID,0,VALID,19.4718,VALID,357,VALID,0,
2012-08-21, 01:15:05,VALID,917.505,VALID,0,VALID,97.4806,VALID,0,VALID,19.4718,VALID,357,VALID,0,
2012-08-21, 01:16:05,VALID,917.49,VALID,0.2,VALID,97.4882,VALID,0,VALID,19.5108,VALID,357,VALID,0,
2012-08-21, 01:17:05,VALID,917.507,VALID,0,VALID,97.4959,VALID,0,VALID,19.5108,VALID,5,VALID,0,
2012-08-21, 01:18:05,VALID,917.465,VALID,0,VALID,97.4806,VALID,0,VALID,19.5498,VALID,5,VALID,0,
2012-08-21, 01:19:05,VALID,917.435,VALID,0,VALID,97.4959,VALID,0,VALID,19.5708,VALID,5,VALID,0,
2012-08-21, 01:20:05,VALID,917.423,VALID,0,VALID,97.5111,VALID,0,VALID,19.5693,VALID,5,VALID,0,
2012-08-21, 01:21:05,VALID,917.408,VALID,0,VALID,97.4882,VALID,0,VALID,19.5693,VALID,5,VALID,0,
2012-08-21, 01:22:05,VALID,917.379,VALID,0,VALID,97.4959,VALID,0,VALID,19.5693,VALID,5,VALID,0,
2012-08-21, 01:23:05,VALID,917.365,VALID,0,VALID,97.5035,VALID,0,VALID,19.5903,VALID,5,VALID,0,
2012-08-21, 01:24:05,VALID,917.359,VALID,0,VALID,97.5111,VALID,0,VALID,19.5888,VALID,5,VALID,0,
2012-08-21, 01:25:05,VALID,917.34,VALID,0,VALID,97.5187,VALID,0,VALID,19.5483,VALID,5,VALID,0,
2012-08-21, 01:26:05,VALID,917.324,VALID,0,VALID,97.534,VALID,0,VALID,19.6098,VALID,5,VALID,0,
2012-08-21, 01:27:05,VALID,917.337,VALID,0,VALID,97.5035,VALID,0,VALID,19.5498,VALID,5,VALID,0,
2012-08-21, 01:28:05,VALID,917.326,VALID,0,VALID,97.5035,VALID,0,VALID,19.6278,VALID,5,VALID,0,
2012-08-21, 01:29:05,VALID,917.338,VALID,0,VALID,97.5264,VALID,0,VALID,19.6278,VALID,5,VALID,0,
2012-08-21, 01:30:05,VALID,917.317,VALID,0,VALID,97.5187,VALID,0,VALID,19.6098,VALID,5,VALID,0,
2012-08-21, 01:31:05,VALID,917.33,VALID,0,VALID,97.5111,VALID,0,VALID,19.6083,VALID,5,VALID,0,
2012-08-21, 01:32:05,VALID,917.305,VALID,0,VALID,97.5187,VALID,0,VALID,19.5693,VALID,5,VALID,0,
2012-08-21, 01:33:05,VALID,917.282,VALID,0,VALID,97.5111,VALID,0,VALID,19.6083,INVALID,360,VALID,0,
2012-08-21, 01:34:05,VALID,917.265,VALID,0,VALID,97.5035,VALID,0,VALID,19.6278,VALID,21,VALID,0,
2012-08-21, 01:35:05,VALID,917.249,VALID,0.2,VALID,97.5111,VALID,0,VALID,19.6473,VALID,21,VALID,0,
2012-08-21, 01:36:05,VALID,917.246,VALID,0,VALID,97.4806,VALID,0,VALID,19.6083,VALID,21,VALID,0,
2012-08-21, 01:37:05,VALID,917.214,VALID,0,VALID,97.4959,VALID,0,VALID,19.5303,VALID,8,VALID,0,
2012-08-21, 01:38:05,VALID,917.203,VALID,0,VALID,97.5111,VALID,0,VALID,19.5498,VALID,8,VALID,0,
2012-08-21, 01:39:05,VALID,917.204,VALID,0,VALID,97.5187,VALID,0,VALID,19.4913,VALID,8,VALID,0,
2012-08-21, 01:40:05,VALID,917.157,VALID,0,VALID,97.5111,VALID,0,VALID,19.5108,VALID,8,VALID,0,
2012-08-21, 01:41:05,VALID,917.135,VALID,0,VALID,97.5111,VALID,0,VALID,19.5303,VALID,14,VALID,0,
2012-08-21, 01:42:05,VALID,917.097,VALID,0,VALID,97.5187,VALID,0,VALID,19.4913,VALID,3,VALID,0,
2012-08-21, 01:43:05,VALID,917.07,VALID,0,VALID,97.5035,VALID,0,VALID,19.5108,VALID,9,VALID,0,
2012-08-21, 01:44:05,VALID,917.047,VALID,0,VALID,97.5111,VALID,0,VALID,19.5498,VALID,36,VALID,0,
2012-08-21, 01:45:05,VALID,917.025,VALID,0,VALID,97.5264,VALID,0,VALID,19.5108,VALID,33,VALID,0,
2012-08-21, 01:46:05,VALID,917.025,VALID,0,VALID,97.5187,VALID,0,VALID,19.5498,VALID,33,VALID,0,
2012-08-21, 01:47:05,VALID,917.008,VALID,0,VALID,97.5187,VALID,0,VALID,19.5693,VALID,33,VALID,0,
2012-08-21, 01:48:05,VALID,916.982,VALID,0,VALID,97.5187,VALID,0,VALID,19.5888,VALID,33,VALID,0,
2012-08-21, 01:49:05,VALID,916.982,VALID,0,VALID,97.5264,VALID,0,VALID,19.6293,VALID,33,VALID,0,
2012-08-21, 01:50:05,VALID,916.976,VALID,0,VALID,97.5187,VALID,0,VALID,19.5303,VALID,33,VALID,0,
2012-08-21, 01:51:05,VALID,916.985,VALID,0,VALID,97.5035,VALID,0,VALID,19.5303,VALID,33,VALID,0,
2012-08-21, 01:52:05,VALID,916.934,VALID,0,VALID,97.5187,VALID,0,VALID,19.5693,VALID,33,VALID,0,
2012-08-21, 01:53:05,VALID,916.941,VALID,0,VALID,97.5492,VALID,0,VALID,19.5693,VALID,33,VALID,0,
2012-08-21, 01:54:05,VALID,916.938,VALID,0,VALID,97.534,VALID,0,VALID,19.6098,VALID,33,VALID,0,
2012-08-21, 01:55:05,VALID,916.936,VALID,0,VALID,97.534,VALID,0,VALID,19.5498,VALID,31,VALID,0,
2012-08-21, 01:56:05,VALID,916.925,VALID,0,VALID,97.5187,VALID,0,VALID,19.5108,VALID,14,VALID,0,
2012-08-21, 01:57:05,VALID,916.892,VALID,0,VALID,97.5111,VALID,0,VALID,19.5108,VALID,14,VALID,0,
2012-08-21, 01:58:05,VALID,916.891,VALID,0,VALID,97.5187,VALID,0,VALID,19.5512,VALID,14,VALID,0,
2012-08-21, 01:59:05,VALID,916.854,VALID,0,VALID,97.534,VALID,0,VALID,19.5693,VALID,14,VALID,0,
2012-08-21, 02:00:05,VALID,916.876,VALID,0,VALID,97.534,VALID,0,VALID,19.5693,VALID,14,VALID,0,
2012-08-21, 02:01:05,VALID,916.849,VALID,0,VALID,97.5416,VALID,0,VALID,19.5888,VALID,14,VALID,0,
2012-08-21, 02:02:05,VALID,916.886,VALID,0.2,VALID,97.5187,VALID,0,VALID,19.5903,VALID,14,VALID,0,
2012-08-21, 02:03:05,VALID,916.847,VALID,0,VALID,97.5187,VALID,0,VALID,19.6083,VALID,14,VALID,0,
2012-08-21, 02:04:05,VALID,916.845,VALID,0,VALID,97.5264,VALID,0,VALID,19.5693,VALID,14,VALID,0,
2012-08-21, 02:05:05,VALID,916.847,VALID,0,VALID,97.5264,VALID,0,VALID,19.5693,VALID,32,VALID,0,
2012-08-21, 02:06:05,VALID,916.808,VALID,0,VALID,97.5187,VALID,0,VALID,19.5888,VALID,23,VALID,0,
2012-08-21, 02:07:05,VALID,916.806,VALID,0,VALID,97.5492,VALID,0,VALID,19.5303,VALID,23,VALID,0,
2012-08-21, 02:08:05,VALID,916.787,VALID,0,VALID,97.5416,VALID,0,VALID,19.5512,VALID,23,VALID,0,
2012-08-21, 02:09:05,VALID,916.779,VALID,0,VALID,97.534,VALID,0,VALID,19.5303,VALID,22,VALID,0,
2012-08-21, 02:10:05,VALID,916.753,VALID,0.2,VALID,97.534,VALID,0,VALID,19.5108,VALID,22,VALID,0,
2012-08-21, 02:11:05,VALID,916.73,VALID,0,VALID,97.5264,VALID,0,VALID,19.5108,VALID,23,VALID,0,
2012-08-21, 02:12:05,VALID,916.704,VALID,0,VALID,97.5187,VALID,0,VALID,19.4913,VALID,23,VALID,0,
2012-08-21, 02:13:05,VALID,916.679,VALID,0.2,VALID,97.5264,VALID,0,VALID,19.5108,VALID,23,VALID,0,
2012-08-21, 02:14:05,VALID,916.655,VALID,0,VALID,97.5264,VALID,0,VALID,19.5303,VALID,23,VALID,0,
2012-08-21, 02:15:05,VALID,916.638,VALID,0,VALID,97.534,VALID,0,VALID,19.5708,VALID,22,VALID,0,
2012-08-21, 02:16:05,VALID,916.668,VALID,0.2,VALID,97.5492,VALID,0,VALID,19.5888,VALID,22,VALID,0,
2012-08-21, 02:17:05,VALID,916.686,VALID,0,VALID,97.534,VALID,0,VALID,19.5108,VALID,22,VALID,0,
2012-08-21, 02:18:05,VALID,916.696,VALID,0.2,VALID,97.5492,VALID,0,VALID,19.4927,VALID,23,VALID,0,
2012-08-21, 02:19:05,VALID,916.738,VALID,0,VALID,97.5492,VALID,0,VALID,19.5122,VALID,23,VALID,0,
2012-08-21, 02:20:05,VALID,916.765,VALID,0.2,VALID,97.5416,VALID,0,VALID,19.5108,VALID,22,VALID,0,
2012-08-21, 02:21:05,VALID,916.791,VALID,0.2,VALID,97.5187,VALID,0,VALID,19.4913,VALID,23,VALID,0,
2012-08-21, 02:22:05,VALID,916.856,VALID,0,VALID,97.5492,VALID,0,VALID,19.4718,VALID,22,VALID,0,
2012-08-21, 02:23:05,VALID,916.868,VALID,0.2,VALID,97.5416,VALID,0,VALID,19.4327,VALID,22,VALID,0,
2012-08-21, 02:24:05,VALID,916.846,VALID,0,VALID,97.5492,VALID,0,VALID,19.4132,VALID,23,VALID,0,
2012-08-21, 02:25:05,VALID,916.85,VALID,0.2,VALID,97.534,VALID,0,VALID,19.4327,VALID,23,VALID,0,
2012-08-21, 02:26:05,VALID,916.829,VALID,0.2,VALID,97.534,VALID,0,VALID,19.4132,VALID,22,VALID,0,
2012-08-21, 02:27:05,VALID,916.839,VALID,0,VALID,97.5492,VALID,0,VALID,19.3937,VALID,23,VALID,0,
2012-08-21, 02:28:05,VALID,916.805,VALID,0.2,VALID,97.5569,VALID,0,VALID,19.4537,VALID,23,VALID,0,
2012-08-21, 02:29:05,VALID,916.813,VALID,0.2,VALID,97.5492,VALID,0,VALID,19.4132,VALID,23,VALID,0,
2012-08-21, 02:30:05,VALID,916.752,VALID,0.2,VALID,97.5569,VALID,0,VALID,19.3937,VALID,22,VALID,0,
2012-08-21, 02:31:05,VALID,916.781,VALID,0,VALID,97.5492,VALID,0,VALID,19.4327,VALID,23,VALID,0,
2012-08-21, 02:32:05,VALID,916.762,VALID,0.2,VALID,97.5416,VALID,0,VALID,19.4523,VALID,22,VALID,0,
2012-08-21, 02:33:05,VALID,916.75,VALID,0.2,VALID,97.5492,VALID,0,VALID,19.4523,VALID,22,VALID,0,
2012-08-21, 02:34:05,VALID,916.746,VALID,0.2,VALID,97.5492,VALID,0,VALID,19.4508,VALID,23,VALID,0,
2012-08-21, 02:35:05,VALID,916.742,VALID,0,VALID,97.5721,VALID,0,VALID,19.4703,VALID,22,VALID,0,
2012-08-21, 02:36:05,VALID,916.735,VALID,0.2,VALID,97.5569,VALID,0,VALID,19.4913,VALID,23,VALID,0,
2012-08-21, 02:37:05,VALID,916.735,VALID,0.2,VALID,97.534,VALID,0,VALID,19.4898,VALID,22,VALID,0,
2012-08-21, 02:38:05,VALID,916.731,VALID,0,VALID,97.5797,VALID,0,VALID,19.4898,VALID,22,VALID,0,
2012-08-21, 02:39:05,VALID,916.708,VALID,0.4,VALID,97.5569,VALID,0,VALID,19.4898,VALID,331,VALID,0,
2012-08-21, 02:40:05,VALID,916.698,VALID,0.2,VALID,97.5569,VALID,0,VALID,19.4508,VALID,331,VALID,0,
2012-08-21, 02:41:05,VALID,916.703,VALID,0.2,VALID,97.5721,VALID,0,VALID,19.5288,VALID,331,VALID,0,
2012-08-21, 02:42:05,VALID,916.666,VALID,0.2,VALID,97.5645,VALID,0,VALID,19.6083,VALID,331,VALID,0,
2012-08-21, 02:43:05,VALID,916.656,VALID,0.4,VALID,97.5645,VALID,0,VALID,19.4703,VALID,331,VALID,0,
2012-08-21, 02:44:05,VALID,916.68,VALID,0.2,VALID,97.5721,VALID,0,VALID,19.5483,VALID,331,VALID,0,
2012-08-21, 02:45:05,VALID,916.634,VALID,0.2,VALID,97.5569,VALID,0,VALID,19.4913,VALID,331,VALID,0,
2012-08-21, 02:46:05,VALID,916.611,VALID,0.2,VALID,97.5721,VALID,0,VALID,19.4718,VALID,331,VALID,0,
2012-08-21, 02:47:05,VALID,916.573,VALID,0.2,VALID,97.5797,VALID,0,VALID,19.4313,VALID,331,VALID,0,
2012-08-21, 02:48:05,VALID,916.566,VALID,0.4,VALID,97.5721,VALID,0,VALID,19.4718,VALID,331,VALID,0,
2012-08-21, 02:49:05,VALID,916.562,VALID,0.2,VALID,97.5569,VALID,0.107441,VALID,19.5093,VALID,18,VALID,0,
2012-08-21, 02:50:05,VALID,916.541,VALID,0.2,VALID,97.5645,VALID,0,VALID,19.5093,VALID,23,VALID,0,
2012-08-21, 02:51:05,VALID,916.501,VALID,0.2,VALID,97.595,VALID,0,VALID,19.5483,VALID,23,VALID,0,
2012-08-21, 02:52:05,VALID,916.517,VALID,0.2,VALID,97.5645,VALID,0.107441,VALID,19.5303,VALID,23,VALID,0,
2012-08-21, 02:53:05,VALID,916.513,VALID,0,VALID,97.5569,VALID,0,VALID,19.5093,VALID,23,VALID,0,
2012-08-21, 02:54:05,VALID,916.531,VALID,0.2,VALID,97.5721,VALID,0,VALID,19.5288,VALID,23,VALID,0,
2012-08-21, 02:55:05,VALID,916.51,VALID,0,VALID,97.595,VALID,0,VALID,19.5108,VALID,23,VALID,0,
2012-08-21, 02:56:05,VALID,916.492,VALID,0.2,VALID,97.5645,VALID,0,VALID,19.5288,VALID,23,VALID,0,
2012-08-21, 02:57:05,VALID,916.495,VALID,0,VALID,97.5721,VALID,0,VALID,19.5303,VALID,23,VALID,0,
2012-08-21, 02:58:05,VALID,916.495,VALID,0.2,VALID,97.5797,VALID,0,VALID,19.5498,VALID,23,VALID,0,
2012-08-21, 02:59:05,VALID,916.526,VALID,0,VALID,97.5797,VALID,0,VALID,19.5498,VALID,23,VALID,0,
2012-08-21, 03:00:05,VALID,916.53,VALID,0,VALID,97.5721,VALID,0.107441,VALID,19.5498,VALID,23,VALID,0,
2012-08-21, 03:01:05,VALID,916.541,VALID,0.2,VALID,97.5721,VALID,0,VALID,19.5288,VALID,30,VALID,0,
2012-08-21, 03:02:05,VALID,916.585,VALID,0,VALID,97.5873,VALID,0,VALID,19.5108,VALID,34,VALID,0,
2012-08-21, 03:03:05,VALID,916.588,VALID,0.2,VALID,97.5721,VALID,0,VALID,19.4313,VALID,21,VALID,0,
2012-08-21, 03:04:05,VALID,916.584,VALID,0,VALID,97.5569,VALID,0,VALID,19.4523,VALID,28,VALID,0.000390625,
2012-08-21, 03:05:05,VALID,916.59,VALID,0.2,VALID,97.5721,VALID,0.107441,VALID,19.3533,VALID,15,VALID,0.608594,
2012-08-21, 03:06:05,VALID,916.603,VALID,0,VALID,97.5873,VALID,0,VALID,19.2948,VALID,27,VALID,0.0921875,
2012-08-21, 03:07:05,VALID,916.582,VALID,0.2,VALID,97.5721,VALID,0,VALID,19.2753,VALID,35,VALID,0.166797,
2012-08-21, 03:08:05,VALID,916.625,VALID,0,VALID,97.595,VALID,0,VALID,19.2363,VALID,356,VALID,0,
2012-08-21, 03:09:05,VALID,916.572,VALID,0.2,VALID,97.5797,VALID,0.107441,VALID,19.2168,VALID,15,VALID,0.00351562,
2012-08-21, 03:10:05,VALID,916.564,VALID,0.2,VALID,97.5569,VALID,0.107441,VALID,19.1778,VALID,23,VALID,0.201562,
2012-08-21, 03:11:05,VALID,916.55,VALID,0.2,VALID,97.595,VALID,0.107441,VALID,19.1388,VALID,26,VALID,0,
2012-08-21, 03:12:05,VALID,916.57,VALID,0.2,VALID,97.5797,VALID,0,VALID,19.1583,VALID,5,VALID,0,
2012-08-21, 03:13:05,VALID,916.569,VALID,0.2,VALID,97.5873,VALID,0.107441,VALID,19.1193,VALID,28,VALID,0,
2012-08-21, 03:14:05,VALID,916.559,VALID,0.2,VALID,97.6178,VALID,0.107441,VALID,19.0998,VALID,27,VALID,0,
2012-08-21, 03:15:05,VALID,916.568,VALID,0,VALID,97.6026,VALID,0.107441,VALID,19.1193,VALID,23,VALID,0,
2012-08-21, 03:16:05,VALID,916.615,VALID,0.2,VALID,97.6178,VALID,0,VALID,19.0413,VALID,39,VALID,0,
2012-08-21, 03:17:05,VALID,916.578,VALID,0.2,VALID,97.6026,VALID,0.107441,VALID,19.0803,VALID,29,VALID,0,
2012-08-21, 03:18:04,VALID,916.616,VALID,0.2,VALID,97.595,VALID,0,VALID,19.0622,VALID,10,VALID,0,
2012-08-21, 03:19:04,VALID,916.606,VALID,0,VALID,97.6178,VALID,0,VALID,19.0427,VALID,5,VALID,0,
2012-08-21, 03:20:04,VALID,916.585,VALID,0.2,VALID,97.6255,VALID,0,VALID,18.9842,VALID,13,VALID,0,
2012-08-21, 03:21:04,VALID,916.604,VALID,0.2,VALID,97.6102,VALID,0,VALID,18.9842,VALID,343,VALID,0,
2012-08-21, 03:22:04,VALID,916.597,VALID,0,VALID,97.6178,VALID,0,VALID,18.9647,VALID,1,VALID,0,
2012-08-21, 03:23:04,VALID,916.601,VALID,0,VALID,97.6026,VALID,0,VALID,18.9062,VALID,10,VALID,0,
2012-08-21, 03:24:04,VALID,916.602,VALID,0,VALID,97.6255,VALID,0,VALID,18.9842,VALID,10,VALID,0,
2012-08-21, 03:25:04,VALID,916.607,VALID,0.2,VALID,97.6407,VALID,0,VALID,18.9842,VALID,10,VALID,0,
2012-08-21, 03:26:04,VALID,916.584,VALID,0,VALID,97.6407,VALID,0,VALID,19.0037,VALID,19,VALID,0,
2012-08-21, 03:27:04,VALID,916.584,VALID,0,VALID,97.656,VALID,0,VALID,18.8867,VALID,323,VALID,0.0867188,
2012-08-21, 03:28:04,VALID,916.568,VALID,0,VALID,97.6407,VALID,0,VALID,18.9257,VALID,352,VALID,0,
2012-08-21, 03:29:04,VALID,916.594,VALID,0,VALID,97.6483,VALID,0,VALID,18.8867,VALID,3,VALID,0,
2012-08-21, 03:30:04,VALID,916.607,VALID,0,VALID,97.6483,VALID,0,VALID,18.9077,VALID,342,VALID,0,
2012-08-21, 03:31:04,VALID,916.574,VALID,0,VALID,97.6255,VALID,0,VALID,18.9452,VALID,21,VALID,0,
2012-08-21, 03:32:04,VALID,916.577,VALID,0.2,VALID,97.6331,VALID,0,VALID,18.9452,VALID,344,VALID,0,
2012-08-21, 03:33:04,VALID,916.583,VALID,0,VALID,97.656,VALID,0,VALID,18.8867,VALID,5,VALID,0,
2012-08-21, 03:34:04,VALID,916.564,VALID,0,VALID,97.656,VALID,0,VALID,18.8867,VALID,29,VALID,0,
2012-08-21, 03:35:04,VALID,916.579,VALID,0,VALID,97.656,VALID,0,VALID,18.8672,VALID,30,VALID,0,
2012-08-21, 03:36:04,VALID,916.598,VALID,0,VALID,97.6712,VALID,0,VALID,18.8867,VALID,27,VALID,0,
2012-08-21, 03:37:04,VALID,916.592,VALID,0,VALID,97.6712,VALID,0,VALID,18.8867,VALID,2,VALID,0,
2012-08-21, 03:38:04,VALID,916.603,VALID,0,VALID,97.6483,VALID,0,VALID,18.9062,VALID,20,VALID,0,
2012-08-21, 03:39:04,VALID,916.601,VALID,0,VALID,97.6483,VALID,0,VALID,18.9077,VALID,10,VALID,0,
2012-08-21, 03:40:04,VALID,916.602,VALID,0,VALID,97.6483,VALID,0,VALID,18.8867,VALID,14,VALID,0,
2012-08-21, 03:41:04,VALID,916.613,VALID,0,VALID,97.656,VALID,0,VALID,18.8672,VALID,1,VALID,0,
2012-08-21, 03:42:04,VALID,916.554,VALID,0,VALID,97.6636,VALID,0,VALID,18.8477,VALID,322,VALID,0,
2012-08-21, 03:43:04,VALID,916.549,VALID,0,VALID,97.6712,VALID,0,VALID,18.8463,VALID,8,VALID,0.0898438,
2012-08-21, 03:44:04,VALID,916.538,VALID,0,VALID,97.6407,VALID,0,VALID,18.8477,VALID,355,VALID,0.196484,
2012-08-21, 03:45:04,VALID,916.528,VALID,0,VALID,97.6788,VALID,0,VALID,18.8282,VALID,9,VALID,0.00195313,
2012-08-21, 03:46:04,VALID,916.57,VALID,0.2,VALID,97.6788,VALID,0,VALID,18.8282,VALID,351,VALID,0,
2012-08-21, 03:47:04,VALID,916.534,VALID,0,VALID,97.656,VALID,0,VALID,18.8087,VALID,14,VALID,0,
2012-08-21, 03:48:04,VALID,916.57,VALID,0,VALID,97.6483,VALID,0,VALID,18.8282,VALID,2,VALID,0,
2012-08-21, 03:49:04,VALID,916.564,VALID,0,VALID,97.6712,VALID,0,VALID,18.8282,VALID,5,VALID,0,
2012-08-21, 03:50:04,VALID,916.548,VALID,0,VALID,97.6712,VALID,0,VALID,18.8477,VALID,26,VALID,0,
2012-08-21, 03:51:04,VALID,916.573,VALID,0,VALID,97.6636,VALID,0,VALID,18.8477,VALID,10,VALID,0,
2012-08-21, 03:52:04,VALID,916.576,VALID,0,VALID,97.6788,VALID,0,VALID,18.8282,VALID,14,VALID,0,
2012-08-21, 03:53:04,VALID,916.607,VALID,0,VALID,97.6865,VALID,0,VALID,18.8477,VALID,12,VALID,0,
2012-08-21, 03:54:04,VALID,916.6,VALID,0.2,VALID,97.6865,VALID,0,VALID,18.8477,VALID,12,VALID,0,
2012-08-21, 03:55:04,VALID,916.567,VALID,0,VALID,97.6712,VALID,0,VALID,18.8282,VALID,30,VALID,0,
2012-08-21, 03:56:04,VALID,916.656,VALID,0,VALID,97.6788,VALID,0,VALID,18.8882,VALID,20,VALID,0,
2012-08-21, 03:57:04,VALID,916.639,VALID,0,VALID,97.7017,VALID,0,VALID,18.8672,VALID,10,VALID,0,
2012-08-21, 03:58:04,VALID,916.635,VALID,0,VALID,97.7017,VALID,0,VALID,18.8672,VALID,26,VALID,0,
2012-08-21, 03:59:04,VALID,916.619,VALID,0,VALID,97.6941,VALID,0,VALID,18.8867,VALID,26,VALID,0,